Time,TemperatureF,DewpointF,PressureIn,WindDirection,WindDirectionDegrees,WindSpeedMPH,WindSpeedGustMPH,Humidity,HourlyPrecipIn,Conditions,Clouds,dailyrainin,SoftwareType,DateUTC
2013-01-23 00:07:00,38.1,34.0,30.20,NNE,32,0.0,0.0,84,0.00,,,0.00,weatherlink.com 1.10,2013-01-23 07:07:00,
2013-01-23 00:22:00,37.9,34.0,30.19,NNE,32,0.0,0.0,85,0.00,,,0.00,weatherlink.com 1.10,2013-01-23 07:22:00,
2013-01-23 00:37:00,37.4,33.0,30.19,NNE,33,0.0,0.0,84,0.00,,,0.00,weatherlink.com 1.10,2013-01-23 07:37:00,
2013-01-23 00:52:00,36.5,32.0,30.20,NNE,32,0.0,1.0,85,0.00,,,0.00,weatherlink.com 1.10,2013-01-23 07:52:00,
2013-01-23 01:07:00,36.1,32.0,30.20,NNE,32,0.0,1.0,86,0.00,,,0.00,weatherlink.com 1.10,2013-01-23 08:07:00,
2013-01-23 01:37:00,35.4,32.0,30.20,NNE,31,1.0,2.0,86,0.00,,,0.00,weatherlink.com 1.10,2013-01-23 08:37:00,
2013-01-23 01:52:00,34.3,31.0,30.20,NE,41,0.0,2.0,87,0.00,,,0.00,weatherlink.com 1.10,2013-01-23 08:52:00,
2013-01-23 02:07:00,34.2,31.0,30.21,NE,41,0.0,2.0,87,0.00,,,0.00,weatherlink.com 1.10,2013-01-23 09:07:00,
2013-01-23 02:22:00,34.3,31.0,30.21,NE,41,0.0,0.0,89,0.00,,,0.00,weatherlink.com 1.10,2013-01-23 09:22:00,
2013-01-23 02:37:00,34.6,31.0,30.21,NE,41,0.0,1.0,88,0.00,,,0.00,weatherlink.com 1.10,2013-01-23 09:37:00,
2013-01-23 02:52:00,34.3,31.0,30.20,NE,41,0.0,0.0,87,0.00,,,0.00,weatherlink.com 1.10,2013-01-23 09:52:00,
2013-01-23 03:07:00,33.6,30.0,30.20,NE,41,0.0,1.0,87,0.00,,,0.00,weatherlink.com 1.10,2013-01-23 10:07:00,
2013-01-23 03:22:00,33.0,30.0,30.19,NE,41,0.0,1.0,87,0.00,,,0.00,weatherlink.com 1.10,2013-01-23 10:22:00,
2013-01-23 03:37:00,32.1,29.0,30.19,NE,41,0.0,0.0,87,0.00,,,0.00,weatherlink.com 1.10,2013-01-23 10:37:00,
2013-01-23 03:52:00,31.9,29.0,30.19,NE,41,0.0,0.0,89,0.00,,,0.00,weatherlink.com 1.10,2013-01-23 10:52:00,
2013-01-23 04:07:00,32.0,29.0,30.19,NE,41,0.0,1.0,89,0.00,,,0.00,weatherlink.com 1.10,2013-01-23 11:07:00,
2013-01-23 04:22:00,31.7,29.0,30.20,NE,41,0.0,1.0,88,0.00,,,0.00,weatherlink.com 1.10,2013-01-23 11:22:00,
2013-01-23 04:37:00,31.8,29.0,30.19,NE,41,0.0,1.0,90,0.00,,,0.00,weatherlink.com 1.10,2013-01-23 11:37:00,
2013-01-23 04:52:00,31.8,29.0,30.20,NE,41,0.0,1.0,90,0.00,,,0.00,weatherlink.com 1.10,2013-01-23 11:52:00,
2013-01-23 05:07:00,31.1,28.0,30.20,NE,41,0.0,0.0,89,0.00,,,0.00,weatherlink.com 1.10,2013-01-23 12:07:00,
2013-01-23 05:22:00,30.7,28.0,30.20,NE,41,0.0,0.0,89,0.00,,,0.00,weatherlink.com 1.10,2013-01-23 12:22:00,
2013-01-23 05:37:00,30.6,28.0,30.20,NE,41,0.0,0.0,90,0.00,,,0.00,weatherlink.com 1.10,2013-01-23 12:37:00,
2013-01-23 05:52:00,30.3,28.0,30.20,NE,41,0.0,1.0,90,0.00,,,0.00,weatherlink.com 1.10,2013-01-23 12:52:00,
2013-01-23 06:07:00,30.2,28.0,30.21,NE,41,0.0,0.0,90,0.00,,,0.00,weatherlink.com 1.10,2013-01-23 13:07:00,
2013-01-23 06:23:00,29.4,27.0,30.22,NE,41,0.0,1.0,90,0.00,,,0.00,weatherlink.com 1.10,2013-01-23 13:23:00,
2013-01-23 06:38:00,29.4,27.0,30.22,NE,39,0.0,2.0,91,0.00,,,0.00,weatherlink.com 1.10,2013-01-23 13:38:00,
2013-01-23 06:53:00,29.6,27.0,30.22,NNE,30,1.0,2.0,91,0.00,,,0.00,weatherlink.com 1.10,2013-01-23 13:53:00,
2013-01-23 07:08:00,30.3,28.0,30.22,WNW,303,3.0,4.0,92,0.00,,,0.00,weatherlink.com 1.10,2013-01-23 14:08:00,
2013-01-23 07:23:00,31.0,29.0,30.22,WNW,301,2.0,5.0,92,0.00,,,0.00,weatherlink.com 1.10,2013-01-23 14:23:00,
2013-01-23 07:38:00,31.6,29.0,30.23,NW,326,2.0,6.0,91,0.00,,,0.00,weatherlink.com 1.10,2013-01-23 14:38:00,
2013-01-23 07:53:00,32.4,30.0,30.22,NW,307,0.0,3.0,91,0.00,,,0.00,weatherlink.com 1.10,2013-01-23 14:53:00,
2013-01-23 08:08:00,34.4,32.0,30.23,NW,319,0.0,5.0,91,0.00,,,0.00,weatherlink.com 1.10,2013-01-23 15:08:00,
2013-01-23 08:23:00,36.2,34.0,30.23,NNW,347,1.0,5.0,90,0.00,,,0.00,weatherlink.com 1.10,2013-01-23 15:23:00,
2013-01-23 08:38:00,38.3,35.0,30.23,North,359,0.0,3.0,89,0.00,,,0.00,weatherlink.com 1.10,2013-01-23 15:38:00,
2013-01-23 08:53:00,41.7,37.0,30.23,North,359,0.0,0.0,84,0.00,,,0.00,weatherlink.com 1.10,2013-01-23 15:53:00,
2013-01-23 09:08:00,44.9,38.0,30.23,North,359,0.0,1.0,78,0.00,,,0.00,weatherlink.com 1.10,2013-01-23 16:08:00,
2013-01-23 09:23:00,47.1,39.0,30.24,North,359,0.0,1.0,73,0.00,,,0.00,weatherlink.com 1.10,2013-01-23 16:23:00,
2013-01-23 09:38:00,48.3,40.0,30.24,North,359,0.0,1.0,72,0.00,,,0.00,weatherlink.com 1.10,2013-01-23 16:38:00,
2013-01-23 09:53:00,48.6,40.0,30.25,North,350,0.0,2.0,73,0.00,,,0.00,weatherlink.com 1.10,2013-01-23 16:53:00,
2013-01-23 10:08:00,50.0,40.0,30.26,West,259,0.0,5.0,69,0.00,,,0.00,weatherlink.com 1.10,2013-01-23 17:08:00,
2013-01-23 10:23:00,51.6,40.0,30.24,WSW,239,4.0,6.0,65,0.00,,,0.00,weatherlink.com 1.10,2013-01-23 17:23:00,
2013-01-23 10:38:00,52.9,40.0,30.23,WSW,253,2.0,6.0,63,0.00,,,0.00,weatherlink.com 1.10,2013-01-23 17:38:00,
2013-01-23 10:53:00,53.9,41.0,30.22,SW,225,0.0,6.0,62,0.00,,,0.00,weatherlink.com 1.10,2013-01-23 17:53:00,
2013-01-23 11:08:00,54.4,41.0,30.21,WNW,284,1.0,6.0,60,0.00,,,0.00,weatherlink.com 1.10,2013-01-23 18:08:00,
2013-01-23 11:23:00,55.7,40.0,30.21,WSW,245,2.0,7.0,57,0.00,,,0.00,weatherlink.com 1.10,2013-01-23 18:23:00,
2013-01-23 11:38:00,57.0,41.0,30.20,SW,236,2.0,8.0,55,0.00,,,0.00,weatherlink.com 1.10,2013-01-23 18:38:00,
2013-01-23 11:53:00,58.4,41.0,30.19,SW,214,5.0,5.0,52,0.00,,,0.00,weatherlink.com 1.10,2013-01-23 18:53:00,
2013-01-23 12:08:00,59.6,41.0,30.18,South,183,1.0,7.0,50,0.00,,,0.00,weatherlink.com 1.10,2013-01-23 19:08:00,
2013-01-23 12:23:00,60.8,40.0,30.17,South,170,3.0,6.0,46,0.00,,,0.00,weatherlink.com 1.10,2013-01-23 19:23:00,
2013-01-23 12:39:00,61.6,40.0,30.16,South,188,8.0,10.0,45,0.00,,,0.00,weatherlink.com 1.10,2013-01-23 19:39:00,
2013-01-23 12:54:00,62.7,40.0,30.16,SSW,206,8.0,11.0,43,0.00,,,0.00,weatherlink.com 1.10,2013-01-23 19:54:00,
2013-01-23 13:09:00,63.5,39.0,30.15,South,180,6.0,10.0,41,0.00,,,0.00,weatherlink.com 1.10,2013-01-23 20:09:00,
2013-01-23 13:24:00,64.6,40.0,30.15,SSW,193,7.0,10.0,40,0.00,,,0.00,weatherlink.com 1.10,2013-01-23 20:24:00,
2013-01-23 13:39:00,65.2,40.0,30.14,South,191,7.0,12.0,40,0.00,,,0.00,weatherlink.com 1.10,2013-01-23 20:39:00,
2013-01-23 13:54:00,65.1,41.0,30.13,South,173,2.0,7.0,41,0.00,,,0.00,weatherlink.com 1.10,2013-01-23 20:54:00,
2013-01-23 14:09:00,65.8,42.0,30.13,SE,137,2.0,7.0,42,0.00,,,0.00,weatherlink.com 1.10,2013-01-23 21:09:00,
2013-01-23 14:24:00,65.7,43.0,30.13,SSE,160,3.0,7.0,44,0.00,,,0.00,weatherlink.com 1.10,2013-01-23 21:24:00,
2013-01-23 14:39:00,66.5,44.0,30.12,SE,144,4.0,8.0,44,0.00,,,0.00,weatherlink.com 1.10,2013-01-23 21:39:00,
2013-01-23 14:54:00,66.9,45.0,30.11,SSE,166,3.0,8.0,45,0.00,,,0.00,weatherlink.com 1.10,2013-01-23 21:54:00,
2013-01-23 15:09:00,67.6,45.0,30.11,SSE,164,2.0,9.0,44,0.00,,,0.00,weatherlink.com 1.10,2013-01-23 22:09:00,
2013-01-23 15:24:00,68.6,44.0,30.10,South,180,5.0,8.0,41,0.00,,,0.00,weatherlink.com 1.10,2013-01-23 22:24:00,
2013-01-23 15:39:00,69.3,44.0,30.10,SSE,158,5.0,12.0,40,0.00,,,0.00,weatherlink.com 1.10,2013-01-23 22:39:00,
2013-01-23 15:54:00,69.2,46.0,30.10,South,172,4.0,10.0,43,0.00,,,0.00,weatherlink.com 1.10,2013-01-23 22:54:00,
2013-01-23 16:09:00,68.4,45.0,30.09,South,169,5.0,9.0,43,0.00,,,0.00,weatherlink.com 1.10,2013-01-23 23:09:00,
2013-01-23 16:24:00,67.6,45.0,30.09,South,181,5.0,9.0,44,0.00,,,0.00,weatherlink.com 1.10,2013-01-23 23:24:00,
2013-01-23 16:39:00,66.5,44.0,30.09,South,179,3.0,7.0,44,0.00,,,0.00,weatherlink.com 1.10,2013-01-23 23:39:00,
2013-01-23 16:54:00,65.3,43.0,30.09,South,180,2.0,3.0,45,0.00,,,0.00,weatherlink.com 1.10,2013-01-23 23:54:00,
2013-01-23 17:09:00,64.2,42.0,30.09,South,176,0.0,3.0,45,0.00,,,0.00,weatherlink.com 1.10,2013-01-24 00:09:00,
2013-01-23 17:25:00,63.4,42.0,30.10,South,175,0.0,2.0,45,0.00,,,0.00,weatherlink.com 1.10,2013-01-24 00:25:00,
2013-01-23 17:40:00,61.8,42.0,30.10,South,175,0.0,1.0,48,0.00,,,0.00,weatherlink.com 1.10,2013-01-24 00:40:00,
2013-01-23 17:54:00,59.3,41.0,30.10,ESE,104,2.0,3.0,51,0.00,,,0.00,weatherlink.com 1.10,2013-01-24 00:54:00,
2013-01-23 18:09:00,56.4,40.0,30.11,ESE,104,2.0,2.0,55,0.00,,,0.00,weatherlink.com 1.10,2013-01-24 01:09:00,
2013-01-23 18:24:00,54.5,42.0,30.12,East,100,1.0,3.0,63,0.00,,,0.00,weatherlink.com 1.10,2013-01-24 01:24:00,
2013-01-23 18:39:00,57.1,44.0,30.12,East,98,1.0,6.0,63,0.00,,,0.00,weatherlink.com 1.10,2013-01-24 01:39:00,
2013-01-23 18:54:00,57.8,44.0,30.12,East,100,2.0,6.0,61,0.00,,,0.00,weatherlink.com 1.10,2013-01-24 01:54:00,
2013-01-23 19:10:00,58.3,45.0,30.12,East,93,3.0,7.0,62,0.00,,,0.00,weatherlink.com 1.10,2013-01-24 02:10:00,
2013-01-23 19:25:00,58.3,46.0,30.12,East,96,2.0,6.0,63,0.00,,,0.00,weatherlink.com 1.10,2013-01-24 02:25:00,
2013-01-23 19:39:00,56.6,45.0,30.11,East,96,1.0,5.0,66,0.00,,,0.00,weatherlink.com 1.10,2013-01-24 02:39:00,
2013-01-23 19:54:00,57.5,46.0,30.11,SE,124,3.0,6.0,65,0.00,,,0.00,weatherlink.com 1.10,2013-01-24 02:54:00,
2013-01-23 20:09:00,55.8,44.0,30.11,SE,132,0.0,5.0,65,0.00,,,0.00,weatherlink.com 1.10,2013-01-24 03:09:00,
2013-01-23 20:24:00,52.8,44.0,30.11,SE,133,1.0,4.0,71,0.00,,,0.00,weatherlink.com 1.10,2013-01-24 03:24:00,
2013-01-23 20:39:00,53.1,44.0,30.11,SE,145,3.0,8.0,72,0.00,,,0.00,weatherlink.com 1.10,2013-01-24 03:39:00,
2013-01-23 20:55:00,53.2,44.0,30.11,SE,144,3.0,6.0,71,0.00,,,0.00,weatherlink.com 1.10,2013-01-24 03:55:00,
2013-01-23 21:10:00,52.2,44.0,30.11,SSE,152,0.0,3.0,73,0.00,,,0.00,weatherlink.com 1.10,2013-01-24 04:10:00,
2013-01-23 21:24:00,51.0,43.0,30.11,SSE,152,0.0,3.0,74,0.00,,,0.00,weatherlink.com 1.10,2013-01-24 04:24:00,
2013-01-23 21:39:00,48.3,41.0,30.11,SSE,151,0.0,0.0,75,0.00,,,0.00,weatherlink.com 1.10,2013-01-24 04:39:00,
2013-01-23 21:54:00,46.0,40.0,30.11,SSE,152,0.0,0.0,79,0.00,,,0.00,weatherlink.com 1.10,2013-01-24 04:54:00,
2013-01-23 22:10:00,45.1,40.0,30.11,SSE,152,0.0,0.0,82,0.00,,,0.00,weatherlink.com 1.10,2013-01-24 05:10:00,
2013-01-23 22:24:00,44.4,39.0,30.12,East,101,4.0,4.0,82,0.00,,,0.00,weatherlink.com 1.10,2013-01-24 05:24:00,
2013-01-23 22:39:00,41.4,38.0,30.12,North,354,0.0,3.0,86,0.00,,,0.00,weatherlink.com 1.10,2013-01-24 05:39:00,
2013-01-23 22:54:00,41.0,37.0,30.12,North,4,3.0,3.0,87,0.00,,,0.00,weatherlink.com 1.10,2013-01-24 05:54:00,
2013-01-23 23:10:00,40.3,38.0,30.12,NNE,30,1.0,2.0,90,0.00,,,0.00,weatherlink.com 1.10,2013-01-24 06:10:00,
2013-01-23 23:24:00,41.3,39.0,30.12,NE,39,0.0,2.0,91,0.00,,,0.00,weatherlink.com 1.10,2013-01-24 06:24:00,
2013-01-23 23:39:00,40.2,37.0,30.12,NE,40,1.0,3.0,88,0.00,,,0.00,weatherlink.com 1.10,2013-01-24 06:39:00,
2013-01-23 23:55:00,39.2,37.0,30.12,NE,40,1.0,1.0,90,0.00,,,0.00,weatherlink.com 1.10,2013-01-24 06:55:00,